sat.trackr.live / text

‹ back to catalog

KINEIS-3C

NORAD 61220 · 2024-172A

PAYLOAD ACTIVE UNKNOWN

§ Identity

Operator
Country
FR
Launch date
2024-09-20
Launch site
RLLB
Launch vehicle
Mass (kg)
RCS (m²)

External: N2YO · Heavens-Above · Gunter

§ Orbital elements

Epoch: 2026-05-24T23:10:57.097632Z

Period
97.81 min
Inclination
98.0424°
Eccentricity
0.0001384
Mean motion
14.72300665 rev/d
Perigee alt
652.8 km
Apogee alt
654.7 km
Semi-major
7,031.9 km
B*
2.6049e-4
RAAN
235.1102°
Arg perigee
162.1552°
Mean anomaly
197.9704°
Rev number
8,965

§ Raw data

KINEIS-3C1 61220U 24172A   26144.96593863  .00001597  00000+0  26049-3 0  99982 61220  98.0424 235.1102 0001384 162.1552 197.9704 14.72300665 89651

JSON: /api/v1/satellites/61220 · /tle

For live sub-satellite position, see the globe view (requires WebGL).

§ Visibility from observer

Set your observer location to see the next 7 days of passes ≥ 10°. The values pass through the URL so the page stays shareable.

No JS? Fill the form by hand. The geolocation button needs JavaScript.

§ Radio — SatNOGS DB

ModeDescriptionDownlinkUplink
BPSK S-band telemetry 2.265 GHz
FM Telemetry 400.662 MHz

2 transmitters · refreshed weekly from db.satnogs.org